Hourly Data Report for August 08, 2022

ST-JOVITE
QUEBEC
Current Station Operator: ECCC - MSC

46°04'49.000" N
74°33'21.000" W
238.50 m
703GDKB
71376
WJT

Download Data

Hourly Data (August 2022)
Hourly Data Report for August 8, 2022
TIME
LST
Temp Definition
°C
Dew Point Definition
°C
Rel Hum Definition
%
Precip. Amount Definition
mm

Wind Dir Definition
10's deg

Wind Spd Definition
km/h
Visibility Definition
km
Stn Press Definition
kPa
Hmdx Definition


Wind Chill Definition


Weather Definition


00:00 16.9 LegendMM LegendMM 8.0 5 2   98.77     LegendNANA
01:00 16.2 LegendMM LegendMM 3.0 0 1   98.78     LegendNANA
02:00 15.6 LegendMM LegendMM 3.0   0   98.74     LegendNANA
03:00 15.5 LegendMM LegendMM 4.0 5 2   98.73     LegendNANA
04:00 15.4 LegendMM LegendMM 6.0 5 2   98.68     LegendNANA
05:00 15.4 LegendMM LegendMM 3.0 3 2   98.69     LegendNANA
06:00 14.6 LegendMM LegendMM 0.0 5 2   98.71     LegendNANA
07:00 14.1 LegendMM LegendMM 6.6 7 3   98.72     LegendNANA
08:00 13.5 LegendMM LegendMM 4.4 5 2   98.70     LegendNANA
09:00 13.9 LegendMM LegendMM 4.0 7 4   98.67     LegendNANA
10:00 14.2 LegendMM LegendMM 2.0 6 3   98.66     LegendNANA
11:00 14.5 LegendMM LegendMM 2.8 6 2   98.64     LegendNANA
12:00 14.3 LegendMM LegendMM 4.2 8 8   98.58     LegendNANA
13:00 14.3 LegendMM LegendMM 5.5 7 3   98.50     LegendNANA
14:00 14.7 LegendMM LegendMM 2.5 6 4   98.40     LegendNANA
15:00 14.6 LegendMM LegendMM 0.0 6 6   98.28     LegendNANA
16:00 14.5 LegendMM LegendMM 3.0 7 4   98.15     LegendNANA
17:00 14.5 LegendMM LegendMM 3.0 3 2   98.11     LegendNANA
18:00 14.6 LegendMM LegendMM 0.0 2 1   98.15     LegendNANA
19:00 14.3 LegendMM LegendMM 0.0 7 2   98.19     LegendNANA
20:00 14.3 LegendMM LegendMM 4.0 0 1   98.17     LegendNANA
21:00 14.3 LegendMM LegendMM 0.0 0 1   98.14     LegendNANA
22:00 14.3 LegendMM LegendMM 1.0 6 2   98.12     LegendNANA
23:00 14.0 LegendMM LegendMM 5.0 9 1   98.14     LegendNANA

Notes on Data Quality.

Legend

  • E = Estimated
  • M = Missing
  • NA = Not Available*
  • [empty] = Indicates an unobserved value
Date modified: